sat.trackr.live / text

‹ back to catalog

STARLINK-36482

NORAD 67309 · 2026-002E

PAYLOAD ACTIVE UNKNOWN

§ Identity

Operator
Country
US
Launch date
2026-01-04
Launch site
AFETR
Launch vehicle
Mass (kg)
RCS (m²)

Purposes: comms

External: N2YO · Heavens-Above · Gunter

§ Orbital elements

Epoch: 2026-09-19T04:40:44.855040Z

Period
94.27 min
Inclination
43.0030°
Eccentricity
0.0001575
Mean motion
15.27581967 rev/d
Perigee alt
482.0 km
Apogee alt
484.1 km
Semi-major
6,861.2 km
B*
3.0015e-4
RAAN
312.3992°
Arg perigee
276.0237°
Mean anomaly
84.0436°
Rev number
4,067

§ Raw data

STARLINK-364821 67309U 26002E   26262.19496360  .00008007  00000+0  30015-3 0  99972 67309  43.0030 312.3992 0001575 276.0237  84.0436 15.27581967 40674

JSON: /api/v1/satellites/67309 · /tle

For live sub-satellite position, see the globe view (requires WebGL).

§ Visibility from observer

Set your observer location to see the next 7 days of passes ≥ 10°. The values pass through the URL so the page stays shareable.

No JS? Fill the form by hand. The geolocation button needs JavaScript.